Preview of NWS' New Version of Forecast
This preview is not operational and should not be used for support decisions.
Latest weather observations around

Palm Springs Regional Airport (KPSP)

Using English Units (Switch to International System of Units)
Date/ Time (PST) Wind (mph) Vis. (mi) Weather Sky Cond. Temp (°F) Rel. Humidity Wind Chill (°F) Heat Index (°F) Pressure Precip. (in)
Air Dwpt 6 hour Altimeter (inHg) Sea level (inHg) 1 hr 3 hr 6 hr
Max Min
Feb 19 06:53 N 8 10 Clear CLR 41 26     55% 36   30.12 30.13      
Feb 19 05:53 WSW 7 10 Clear CLR 45 21     38% 41   30.09 30.1      
Feb 19 04:53 6 10 Clear CLR 45 21     38% 42   30.08 30.09      
Feb 19 03:53 Calm 10 Clear   40 30     67%     30.08 30.09      
Feb 19 02:53 N 5 10 Clear CLR 41 30     65% 38   30.08 30.09      
Feb 19 01:53 SSW 5 10 Clear CLR 43 28     55% 40   30.08 30.09      
Feb 19 00:53 N 3 10 Clear CLR 44 29     55% 43   30.08 30.09      
Feb 18 23:53 Calm 10 Clear CLR 44 27     51%     30.08 30.08      
Feb 18 22:53 ESE 5 10 Clear CLR 45 30     56% 43   30.06 30.06      
Feb 18 21:53 NW 9 10 Clear CLR 49 26     41% 45   30.06 30.06      
Feb 18 20:53 W 5 10 Clear CLR 48 29     47% 46   30.04 30.05      
Feb 18 19:53 NNW 5 10 Clear CLR 50 29     44%     30.03 30.03      
Feb 18 18:53 NNW 6 10 Clear CLR 51 31     46%     30.02 30.02      
Feb 18 17:53 NW 7 10 Clear CLR 53 29     39%     30 30.01      
Feb 18 16:53 WNW 8 10 Clear CLR 55 28     35%     29.98 29.98      
Feb 18 15:53 NW 11 10 Partly Cloudy SCT100 57 30     36%     29.98 29.98      
Feb 18 15:17 NW 9 10 Clear CLR 56 30     37%     29.98        
Feb 18 14:53 NW 13 10 Mostly Cloudy BKN080 57 28     33%     29.98 29.98      
Feb 18 13:53 7 10 Partly Cloudy SCT085 56 32     40%     29.99 29.99      
Feb 18 12:53 6 10 Partly Cloudy SCT100 56 28     34%     30 30.01      
Feb 18 11:53 SSW 5 10 Mostly Clear FEW070 58 30     34%     30.02 30.03      
Feb 18 10:53 5 10 Partly Cloudy SCT100 55 36     48%     30.04 30.05      
Feb 18 09:53 Calm 10 Partly Cloudy SCT100 53 36     52%     30.05 30.05      
Feb 18 08:53 Calm 10 Clear CLR 50 38     63%     30.05 30.05      
Feb 18 07:53 Calm 10 Clear CLR 46 40     79%     30.03 30.03      
Feb 18 06:53 Calm 10 Clear CLR 43 39     86%     30.01 30.01      
Feb 18 05:53 Calm 10 Clear CLR 42 40     92%     29.99 30      
Feb 18 04:53 W 3 10 Clear CLR 43 41     93% 41   29.98 29.98      
Feb 18 03:53 NE 6 10 Clear CLR 43 41     93% 39   29.97 29.98     0
Feb 18 02:53 SSW 3 10 Mostly Clear FEW070 43 42     97% 41   29.97 29.97      
Feb 18 01:53 NNW 5 10 Mostly Cloudy BKN060 BKN075 45 42     90% 43   29.97 29.97 0    
Feb 18 00:53 S 3 10 Clear   45 42     90% 44   29.97 29.97 0 0  
Feb 17 23:53 SW 3 7 Light Rain OVC034 47 43     86% 46   29.97 29.98 0    
Feb 17 22:53 SSW 8 10 Cloudy BKN050 OVC060 49 42     77% 45   29.95 29.95 0    
Feb 17 21:53 N 5 10 Cloudy FEW060 OVC085 49 41     74% 47   29.94 29.94     0
Feb 17 20:53 ESE 6 10 Cloudy SCT070 OVC100 49 41     74% 46   29.92 29.93      
Feb 17 19:53 Calm 10 Mostly Cloudy BKN060 BKN090 49 43     80%     29.92 29.92 0    
Feb 17 18:53 SSE 7 10 Cloudy BKN070 OVC085 49 42     77% 46   29.92 29.93 0 0  
Feb 17 17:53 NNE 11 9 Light Rain BKN039 BKN046 OVC090 50 44     80%     29.91 29.91 0    
Feb 17 16:53 Calm 10 Cloudy FEW046 OVC070 53 40     61%     29.9 29.9 0    
Feb 17 15:53 N 11 10 Mostly Cloudy FEW055 FEW070 BKN080 55 38     52%     29.91 29.91 0   0
Feb 17 14:53 WSW 8 10 Cloudy OVC060 57 35     44%     29.93 29.93      
Feb 17 13:53 NE 6 10 Mostly Cloudy BKN095 59 32     36%     29.93 29.93      
Feb 17 13:39 NE 5 10 Mostly Cloudy FEW026 FEW070 BKN090 58 31     36%     29.94        
Feb 17 12:53 7 9 Cloudy SCT070 OVC120 59 31     34%     29.96 29.96      
Feb 17 11:53 7 10 Clear CLR 62 29     28%     29.99 29.98      
Feb 17 11:40 N 10 10 Clear CLR 62 27     26%     30        
Feb 17 10:53 6 10 Clear CLR 60 28     29%     30.01 30.01      
Feb 17 10:22 3 10 Clear CLR 58 27     30%     30.01        
Feb 17 09:53 ESE 9 10 Clear CLR 58 27     30%     30.01 30.01      
Feb 17 09:28 ESE 13 10 Clear CLR 58 29     33%     30.01        
Feb 17 08:53 E 8 10 Clear CLR 56 30     37%     30.01 30.01      
Feb 17 07:53 SW 8 10 Clear CLR 52 32     46%     30 30      
Feb 17 06:53 ESE 8 10 Clear CLR 50 30     46%     29.97 29.98      
Feb 17 05:53 ENE 11 9 Clear CLR 51 33     50%     29.95 29.95      
Feb 17 04:53 WNW 8 9 Clear CLR 51 32     48%     29.96 29.96      
Feb 17 03:53 NE 9 10 Mostly Clear FEW100 52 34     50%     29.93 29.93      
Feb 17 02:53 Calm 10 Partly Cloudy SCT100 51 31     46%     29.97 29.97      
Feb 17 01:53   10 Mostly Cloudy BKN095 55 31     40%     29.98 29.98      
Feb 17 00:53 3 10 Mostly Cloudy BKN100 54 30     40%     29.99 29.99      
Feb 16 23:53 SE 11 10 Mostly Clear FEW100 54 31     41%     29.99 29.98      
Feb 16 22:53 N 6 10 Mostly Clear FEW095 57 31     37%     30 30      
Feb 16 21:53 NNW 13 10 Clear   60 26     27%     30 30      
Feb 16 21:25 WNW 9 10 Clear CLR 59 25     27%     29.99        
Feb 16 20:53 ESE 11 10 Clear CLR 58 30     34%     29.98 29.98      
Feb 16 19:53 SE 9 10 Clear CLR 59 31     34%     29.99 29.98      
Feb 16 18:53 NW 17 10 Mostly Clear FEW070 59 32     36%     29.98 29.98      
Feb 16 17:53 NW 13 10 Clear CLR 61 27     27%     29.97 29.97      
Feb 16 16:53 WNW 11 10 Partly Cloudy SCT090 63 25     23%     29.96 29.96      
Feb 16 15:53 NW 13 10 Clear CLR 65 27     24%     29.96 29.96      
Feb 16 14:53 NW 15 10 Clear CLR 65 29     26%     29.97 29.97      
Feb 16 13:53 NW 10 10 Clear CLR 67 29     24%     29.98 29.98      
Feb 16 12:53 NW 11 10 Clear CLR 66 28     24%     29.99 29.98      
Feb 16 12:40 5 10 Clear CLR 64 27     24%     30        
Feb 16 11:53   10 Clear CLR 65 27     24%     30.02 30.02      
Feb 16 10:53 SSE 10 10 Clear CLR 63 34     34%     30.06 30.06      
Feb 16 09:53 W 5 10 Clear CLR 62 30     30%     30.05 30.06      
Feb 16 08:53 Calm 10 Clear CLR 61 26     26%     30.05 30.05      
Feb 16 07:53 Calm 10 Clear CLR 53 39     59%     30.05 30.05      
May 15 02:53 Calm 10 Clear CLR 69 48     47%     29.84 29.83      
May 14 20:53 NW 21 10 Clear and Windy CLR 78 49     36%   77 29.82 29.81      
May 14 19:53 NW 21 10 Clear and Windy CLR 81 49     33%   80 29.79 29.78      
May 13 21:53 NW 14 10 Clear CLR 74 45     36%   73 29.85 29.84      
May 13 09:53 NW 16 10 Clear   75 44     33%   74 29.93 29.92      
May 12 18:53 NW 22 10 Clear and Windy CLR 75 43     32%   74 29.77 29.76      
May 12 17:53 NW 22 10 Clear and Windy CLR 78 44     30%   77 29.77 29.76      
May 12 16:53 NW 22 10 Clear and Windy CLR 79 44     29%   78 29.76 29.76      
May 12 08:53 WNW 14 10 Clear CLR 70 44     39%     29.85 29.84      
May 12 06:53 WNW 10 10 Clear CLR 65 44     47%     29.81 29.8      
May 12 00:53 SE 6 10 Clear CLR 66 45     47%     29.7 29.69      
May 11 21:53 NW 15 10 Clear CLR 73 41     31%   72 29.68 29.67      
May 11 13:53 NW 22 10 Clear and Windy CLR 83 47     28%   81 29.65 29.64      
Jun 12 04:53 S 8 10 Clear CLR 64 44     48%     29.86 29.85      
Jun 11 21:53   10 Clear CLR 73 43     34%   72 29.8 29.79      
Jun 11 20:53 NNW 15 10 Clear CLR 75 44     33%   74 29.76 29.75      
Jun 11 19:53 NNW 17 10 Clear CLR 79 41     26%   78 29.74 29.73      
Jun 11 18:53 S 8 10 Clear CLR 81 38     21%   80 29.72 29.71      
Jun 10 23:53 NW 18 10 Clear CLR 75 46     36%   74 29.66 29.65      
Jun 10 19:53 NW 17 10 Clear   85 48     28%   83 29.63 29.61      
Jun 08 23:53 WNW 7 10 Clear CLR 83 41     23%   81 29.78 29.76      
Jun 08 17:53 NW 21 10 Clear and Windy CLR 97 40     14%   92 29.74 29.72      
Jun 07 07:53 Calm 10 Clear CLR 78 58     50%   78 29.86 29.85      
Jun 06 12:53 ESE 8 10 Clear CLR 100 45     15%   96 29.82 29.8      
Jun 06 07:53 W 5 10 Clear CLR 83 55     38%   82 29.85 29.84